Regional Weather Roundup
Issued by NWS Green Bay, WI

Home | Current Version | Previous Version | Graphics & Text | Print | Product List | Glossary Off
Versions: 1 2 3 4 5 6 7 8 9 10 11 12 13 14 15 16 17 18 19 20 21 22 23 24 25 26 27 28 29 30 31 32 33 34 35 36 37 38 39 40 41 42 43 44 45 46 47 48 49 50

000
ASUS43 KGRB 222000
RWRGRB

NORTH-CENTRAL AND NORTHEAST WISCONSIN REGIONAL WEATHER ROUNDUP
NATIONAL WEATHER SERVICE GREEN BAY WI
300 PM CDT SUN APR 22 2018

WIZ005-009-010>012-018-019-222100-
NORTH CENTRAL WISCONSIN

CITY           SKY/WX    TMP DP  RH WIND       PRES   REMARKS
IRONWOOD       FAIR      59  23  25 S10       30.29F
MANITOWISH WTR NOT AVBL
ARBOR VITAE    NOT AVBL
EAGLE RIVER    FAIR      58  14  17 SE5       30.30F
LAND O LAKES   FAIR      61  10  13 CALM      30.31F
RHINELANDER    FAIR      59  23  25 S5        30.31F
PHILLIPS       FAIR      58  29  33 SW6       30.29F
ANTIGO         NOT AVBL
TOMAHAWK       NOT AVBL
MERRILL          N/A     59  26  28 CALM      30.32F
$$

WIZ013-073-222100-
NORTHEAST WISCONSIN

CITY           SKY/WX    TMP DP  RH WIND       PRES   REMARKS
IRON MOUNTAIN  FAIR      63  22  20 S10       30.30F
MARINETTE      FAIR      58  22  24 SE13      30.36F
$$

WIZ017-030-035>037-045-222100-
CENTRAL WISCONSIN

CITY           SKY/WX    TMP DP  RH WIND       PRES   REMARKS
MEDFORD        NOT AVBL
WAUSAU         FAIR      59  24  26 E5        30.30F
MOSINEE        MOSUNNY   57  25  28 E10       30.33F
MARSHFIELD     FAIR      55  28  35 SE10      30.31F
WISC RAPIDS    FAIR      57  28  33 E8        30.33F
STEVENS POINT  NOT AVBL
WAUPACA        FAIR      58  11  15 SE7       30.34F
SHAWANO        FAIR      58  17  19 E7        30.34F
CLINTONVILLE   FAIR      56  17  21 S7        30.34F
WAUTOMA        FAIR      57  21  24 E7        30.33F
$$

WIZ038-039-048-051-222100-
FOX VALLEY

CITY           SKY/WX    TMP DP  RH WIND       PRES   REMARKS
NWS GREEN BAY  FAIR      55  27  34 S7        30.35F
APPLETON       MOSUNNY   57  16  19 S7        30.33F
OSHKOSH        FAIR      57  26  30 NE6       30.33F
FOND DU LAC    FAIR      58  27  30 NE8       30.33F
$$

WIZ022-050-052-222100-
EAST CENTRAL WISCONSIN

CITY           SKY/WX    TMP DP  RH WIND       PRES   REMARKS
EPHRAIM        NOT AVBL
WASHINGTON ISL NOT AVBL
STURGEON BAY   FAIR      55  18  23 S6        30.37F
MANITOWOC      FAIR      52  23  32 E6        30.37F
SHEBOYGAN      FAIR      54  32  43 E8        30.35F
$$

LMZ563-521-522-541>543-222100-
LAKESHORE

STATION/POSITION TIME  TEMP    WIND        PRES    VSBY  WAVE
                       AIR SEA DIR/SP/G                  HT/PER
                 (UTC) (F)     (DEG/KT/KT) (MB)    (MI)  (FT/S)
SHEBOYGAN LKSHOR 1900   39      20/  6/  6 1029.1F
KEWAUNEE LKSHORE 1930   45      40/  3/  4 1027.9F
NORTHPORT PIER   1940   40                 1028.4F
SISTER BAY LKSHO 1927   58     350/  4/  5   N/A
MENOMINEE LKSHOR 1930   45     160/  5/  5 1028.0F
$$




USA.gov is the U.S. government's official web portal to all federal, state and local government web resources and services.